AirNav   Air Wisconsin Up To $57,000 Bonus
 
 1381 users online  

53T Cannon Field Airport
Somerset, Texas, USA

GOING TO SOMERSET?


FAA INFORMATION EFFECTIVE 03 NOVEMBER 2022

Location

FAA Identifier: 53T
Lat/Long: 29-12-57.8640N 098-32-58.0630W
29-12.964400N 098-32.967717W
29.2160733,-98.5494619
(estimated)
Elevation: 610 ft. / 186 m (estimated)
Variation: 07E (1985)
From city: 6 miles E of SOMERSET, TX
Time zone: UTC -6 (UTC -5 during Daylight Saving Time)
Zip code: 78264

Airport Operations

Airport use: Open to the public
Activation date: 09/1983
Control tower: no
ARTCC: HOUSTON CENTER
FSS: SAN ANGELO FLIGHT SERVICE STATION
NOTAMs facility: SJT (NOTAM-D service available)
Attendance: CONTINUOUS
FOR ARPT ATTENDANT CALL 210-842-0429.
Wind indicator: yes
Segmented circle: no

Airport Communications

CTAF/UNICOM: 123.0
WX ASOS at SSF (8 nm NE): PHONE 210-927-9391
WX AWOS-3 at PEZ (16 nm S): 118.575 (830-569-5749)
WX AWOS-3 at CVB (18 nm NW): 119.25 (830-931-0232)
WX ASOS at SAT (20 nm N): PHONE 210-805-5583

Nearby radio navigation aids

VOR radial/distance  VOR name  Freq  Var
SSFr236/(6.1)STINSON VOR108.4009E
RNDr212/22.8RANDOLPH VORTAC112.3005E
SATr182/26.1SAN ANTONIO VORTAC116.8008E

 
NDB name  Hdg/Dist  Freq  Var  ID
DEVINE070/20.935907EHHH .... .... ....

Airport Services

Airframe service: NONE
Powerplant service: NONE

Runway Information

Runway 16/34

Dimensions: 2880 x 100 ft. / 878 x 30 m
Surface: turf, in good condition
Runway edge markings: RWY OUTLINED WITH ROUND WHITE CONCRETE MARKERS.
RUNWAY 16  RUNWAY 34
Traffic pattern: leftright
Displaced threshold: 200 ft.300 ft.
Markings: NSTD
Obstructions: 4 ft. fence, 105 ft. right of centerline
RWY 16 0:1 AT DSPLCD THR DUE TO 4 FT FENCE APPROX 105 FT R OF CNTRLN.
49 ft. tree, 100 ft. left of centerline
RWY 34 0:1 AT DSPLCD THR DUE TO +4 FT FENCE 51 FT R OF CNTRLN.

Airport Ownership and Management from official FAA records

Ownership: Privately-owned
Owner: ALAMO LIAISON GROUP
2352 S LOOP 1604 W
SAN ANTONIO, TX 78264-3719
Phone 210-624-2226
Manager: RICHARD ROBERTS
2352 S LOOP 1604 W
SAN ANTONIO, TX 78264-3719
Phone 210-624-2226

Airport Operational Statistics

Aircraft based on the field: 13
Single engine airplanes: 13
    
Aircraft operations: avg 21/week *
91% local general aviation
9% transient general aviation
* for 12-month period ending 01 February 2017

Additional Remarks

WILDLIFE ON & INVOF ARPT.
+30 FT MKD PWRLINE 500 FT N OF RWY 16 END.
RWYS 16 & 34 DSPLCD THRS MKD WITH WHITE PAINTED BARRELS.
RWY 16/34 SOUTH HALF ROUGH EDGES.
RWY 16 +4 FT FENCE 105 FT R PARALLEL TO RWY; +6-10 FT TREES IN FENCE ROW 105 FT R OF CNTRLN.
RWY 34 +4 FT FENCE 51 FT RIGHT PARALLEL TO RWY.
FOR CD CTC SAN ANTONIO APCH AT 210-805-5516.

Instrument Procedures

There are no published instrument procedures at 53T.

Some nearby airports with instrument procedures:

KSSF - Stinson Municipal Airport (8 nm NE)
KSKF - Kelly Field Airport (10 nm N)
KPEZ - Pleasanton Municipal Airport (16 nm S)
KCVB - Castroville Municipal Airport (18 nm NW)
KSAT - San Antonio International Airport (20 nm N)
 
Loc | Ops | Rwys | IFR | FBO | Links
Com | Nav | Svcs | Stats | Notes
Area around 53T (Cannon Field Airport)
 
Road maps at: MapQuest Bing Google
 
Aerial photo
WARNING: Photo may not be current or correct
Aerial photo of 53T (Cannon Field Airport)
Photo taken 11-Jun-2010

Do you have a better or more recent aerial photo of Cannon Field Airport that you would like to share? If so, please send us your photo.

 
Sectional chart

 
Airport distance calculator
Flying to Cannon Field Airport? Find the distance to fly.

From to 53T

Sunrise and sunset
Times for 30-Nov-2022
 Local
(UTC-6)
 Zulu
(UTC)
Morning civil twilight06:4512:45
Sunrise07:1113:11
Sunset17:3523:35
Evening civil twilight18:0000:00

Current date and time
Zulu (UTC)  30-Nov-2022 19:40:29
Local (UTC-6)  30-Nov-2022 13:40:29
 
METAR
KSSF 
8nm NE 
301853Z 04011G23KT 10SM CLR 15/M03 A3029 RMK AO2 SLP254 T01501028
KSKF 
9nm N 
301855Z AUTO 01017KT 10SM CLR 15/04 A3028 RMK AO2 SLP252 T01450036 $
KPEZ 
16nm S 
301915Z AUTO 03011G18KT 10SM CLR 16/M02 A3030 RMK AO2 T01591021
KCVB 
17nm NW 
301917Z AUTO 03011G16KT 10SM CLR 17/M04 A3031 RMK AO2
KSAT 
20nm N 
301851Z 36014G21KT 10SM FEW250 14/M03 A3031 RMK AO2 PK WND 03026/1813 SLP252 T01391028
TAF
KSSF 
8nm NE 
301741Z 3018/0118 02015G25KT P6SM SKC FM010000 04009KT P6SM FEW250 FM010600 01004KT P6SM FEW250 FM011100 02004KT P6SM BKN050
KSKF 
9nm N 
301000Z 3010/0116 03015G28KT 9999 SKC 510004 QNH3008INS BECMG 3022/3023 04010KT 9999 SKC QNH3022INS BECMG 0112/0113 05009KT 9999 BKN025 QNH3032INS TX16/3021Z TN05/0110Z
KSAT 
20nm N 
301742Z 3018/0124 01015G25KT P6SM SKC FM010000 02010KT P6SM FEW250 FM010300 01005KT P6SM FEW250 FM011100 03004KT P6SM BKN050 FM012000 03004KT P6SM VCSH OVC020
NOTAMs
Click for the latest NOTAMs
NOTAMs are issued by the DoD/FAA and will open in a separate window not controlled by AirNav.

 

 
 

Would you like to see your business listed on this page?

 If your business provides an interesting product or service to pilots, flight crews, aircraft, or users of the Cannon Field Airport, you should consider listing it here.  To start the listing process, click on the button below
 
Add a business
 

Other Pages about Cannon Field Airport

Update a link
 
Copyright © AirNav, LLC. All rights reserved. Privacy Policy  Contact